OVERFALLS Weather Reports


time (UTC)temp
C
wind
direction
speed
KPH
gust
KPH
rain 1hr
cm
rain 24hr
cm
rain mn
cm
humidity
%
barometer
mb
20260504214553 23 360 14.5 25.7 0.00 0.00 0.00 31 1011.8
20260504213049 23 360 14.5 29.0 0.00 0.00 0.00 32 1011.7
20260504211542 23 360 16.1 32.2 0.00 0.00 0.00 32 1011.8
20260504210055 23 360 16.1 27.4 0.00 0.00 0.00 32 1011.8
20260504204557 23 360 11.3 30.6 0.00 0.00 0.00 33 1011.7
20260504203044 23 360 17.7 30.6 0.00 0.00 0.00 32 1011.8
20260504201540 23 360 12.9 27.4 0.00 0.00 0.00 32 1011.8
20260504200043 23 360 9.7 24.1 0.00 0.00 0.00 32 1011.9
20260504194542 23 360 11.3 24.1 0.00 0.00 0.00 32 1012.1
20260504193043 23 360 11.3 22.5 0.00 0.00 0.00 33 1012.3
20260504191542 23 251 11.3 27.4 0.00 0.00 0.00 32 1012.4
20260504190041 23 224 4.8 25.7 0.00 0.00 0.00 32 1012.6
20260504184543 23 251 8.0 19.3 0.00 0.00 0.00 32 1012.7
20260504183041 23 238 11.3 22.5 0.00 0.00 0.00 32 1012.8
20260504181541 23 245 12.9 19.3 0.00 0.00 0.00 31 1013.1
20260504180041 22 209 11.3 25.7 0.00 0.00 0.00 33 1013.0
20260504174541 22 212 12.9 32.2 0.00 0.00 0.00 32 1013.2
20260504173051 22 184 9.7 27.4 0.00 0.00 0.00 32 1013.3
20260504171545 22 261 12.9 30.6 0.00 0.00 0.00 33 1013.4
20260504081544 10 264 9.7 25.7 0.00 0.00 0.00 75 1016.7
20260504044546 9 243 6.4 12.9 0.00 0.00 0.00 58 1016.6
20260504043053 9 193 6.4 11.3 0.00 0.00 0.00 58 1016.6
20260504041549 9 190 4.8 12.9 0.00 0.00 0.00 58 1016.4
20260504040046 9 201 6.4 11.3 0.00 0.00 0.00 57 1016.2
20260504034547 9 205 4.8 11.3 0.00 0.00 0.00 56 1016.1
20260504033050 9 196 4.8 9.7 0.00 0.00 0.00 55 1016.0
20260504031544 10 360 4.8 9.7 0.00 0.00 0.00 55 1016.0
20260504030041 10 360 6.4 9.7 0.00 0.00 0.00 54 1016.0
20260504024546 10 194 3.2 8.0 0.00 0.00 0.00 54 1016.0
20260504023042 10 203 4.8 11.3 0.00 0.00 0.00 53 1015.9
20260504021541 10 203 3.2 6.4 0.00 0.00 0.00 52 1016.0
20260504020041 10 203 3.2 8.0 0.00 0.00 0.00 51 1016.0
20260504014543 10 203 3.2 9.7 0.00 0.00 0.00 51 1015.9
20260504013055 11 263 1.6 9.7 0.00 0.00 0.00 49 1015.7
20260504011541 11 263 0.0 4.8 0.00 0.00 0.00 47 1015.6
20260504010043 11 263 3.2 6.4 0.00 0.00 0.00 47 1015.5
20260504004541 12 263 1.6 4.8 0.00 0.00 0.00 45 1015.5
20260504003039 12 263 1.6 4.8 0.00 0.00 0.00 44 1015.3
20260504001547 12 360 1.6 4.8 0.00 0.00 0.00 42 1014.9
20260504000041 13 360 3.2 6.4 0.00 0.00 0.00 40 1014.8
20260503234543 13 360 3.2 11.3 0.00 0.00 0.00 39 1014.8
20260503233040 14 281 6.4 19.3 0.00 0.00 0.00 38 1014.7
20260503231543 14 275 11.3 27.4 0.00 0.00 0.00 37 1014.7
20260503230044 15 261 8.0 22.5 0.00 0.00 0.00 37 1014.6
20260503224542 15 273 9.7 29.0 0.00 0.00 0.00 37 1014.6
20260503223044 15 240 8.0 25.7 0.00 0.00 0.00 37 1014.5
20260503221556 15 270 8.0 22.5 0.00 0.00 0.00 37 1014.5
20260503220043 15 5 11.3 27.4 0.00 0.00 0.00 36 1014.5